Torna al catalogo

STARLINK-36088

AttivoComunicazioniVLEO
NORAD 66941·PAYLOAD·🇺🇸 United States

Lanciato Dec 7, 2025 da Vandenberg Space Force Base

Loading…

Prossimi Passaggi (prossime 24 ore)

TLE

AggiornatoSource: CelesTrak SupGP

Epoca: Sep 14, 2026, 21:06 UTC

1 66941C 25286S   26257.87965278  .00020261  00000+0  59844-3 0  2573
2 66941  53.1585 195.6234 0001265  92.3496 127.0693 15.34389829    13

Traccia STARLINK-36088 in tempo reale con AllMySat

Download on the App Store